Regional Weather Roundup
Issued by NWS

Home | Current Version | Previous Version | Graphics & Text | Print | Product List | Glossary On
Versions: 1 2 3 4 5 6 7 8 9 10 11 12 13 14 15 16 17 18 19 20 21 22 23 24 25 26 27 28 29 30 31 32 33 34 35 36 37 38 39 40 41 42 43 44 45 46 47 48 49 50
000
ASUS44 KMEG 270010
RWRTN
TENNESSEE HOURLY STATE WEATHER ROUNDUP
NATIONAL WEATHER SERVICE MEMPHIS TN
700 PM CDT MON SEP 26 2016

TNZ002-004-019-021-049-052-054-088>092-270100-
WEST TENNESSEE

CITY           SKY/WX    TMP DP  RH WIND       PRES   REMARKS
MEMPHIS INTL   PTCLDY    68  54  60 N14       30.07R
NWS MEMPHIS      N/A     68 N/A N/A MISG        N/A
JACKSON        MOCLDY   N/A N/A N/A N5        30.08R
DYERSBURG      PTCLDY   N/A N/A N/A MISG        N/A
UNION CITY     CLEAR     64  55  72 NW3       30.08R
PARIS          CLEAR     61  54  77 N3        30.09S
HUNTINGDON     CLEAR     64  55  72 CALM      30.07R
LEXINGTON      CLEAR     64  63  94 CALM      30.07R
$$

TNZ008-025-027-028-033-062-065-066-270100-
NORTH MIDDLE TENNESSEE

CITY           SKY/WX    TMP DP  RH WIND       PRES   REMARKS
NASHVILLE      MOCLDY    66  59  78 N6        30.08R
PORTLAND       CLEAR     63  57  82 CALM      30.08R
CLARKSVILLE    CLOUDY    62  54  74 N5        30.08R
SMYRNA         CLOUDY    66  61  84 N7        30.07S
COOKEVILLE     CLOUDY    70  66  88 N6        30.06R
GALLATIN       CLEAR     64  61  88 CALM      30.10R
CROSSVILLE     CLOUDY    71  63  75 NW6       30.08R
$$

TNZ061-075-076-078-094-096-097-270100-
SOUTH MIDDLE TENNESSEE

CITY           SKY/WX    TMP DP  RH WIND       PRES   REMARKS
FAYETTEVILLE   MOCLDY    73  64  73 N6        30.03R
TULLAHOMA      CLEAR     70  63  78 N9        30.06R
WINCHESTER     PTCLDY    75  66  73 CALM      30.03S
MCMINNVILLE    MOCLDY    72  66  83 N12       30.05S
COLUMBIA       CLEAR    N/A N/A N/A N3        30.05F
SHELBYVILLE    CLOUDY    68  64  88 N12       30.07R
$$

TNZ017-018-042-046-047-270100-
NORTHEAST TENNESSEE

CITY           SKY/WX    TMP DP  RH WIND       PRES   REMARKS
TRI CITIES     CLOUDY    68  66  93 CALM      30.06R
ELIZABETHTON     N/A     66  64  94 CALM      30.07S
$$

TNZ012-013-036-069-073-074-270100-
CENTRAL EAST TENNESSEE

CITY           SKY/WX    TMP DP  RH WIND       PRES   REMARKS
KNOXVILLE      MOCLDY    71  67  87 SW6       30.02F
OAK RIDGE      CLOUDY    74  68  81 S5        30.04R
DOWNTOWN KNOXV MOCLDY    72  68  88 W5        30.03R
GATLINBURG     CLEAR     72  64  78 CALM      30.03F
MORRISTOWN     MOCLDY    70  68  94 CALM      30.04S
JACKSBORO      MOCLDY    73  66  78 CALM      30.06R
$$

TNZ083-085-099-270100-
SOUTHEAST TENNESSEE

CITY           SKY/WX    TMP DP  RH WIND       PRES   REMARKS
CHATTANOOGA    PTCLDY    73  69  87 CALM      30.02R
$$

SKY/WX REPORTED AS FAIR MEANS FEW OR NO CLOUDS BELOW
12 THOUSAND FEET.




USA.gov is the U.S. government's official web portal to all federal, state and local government web resources and services.